owner,sensor,date,latitude,longitude,vertical_datum,direction_of_sea_water_velocity,sea_water_speed,upward_sea_water_velocity,qcFlag 
TABS,ioos:station:wmo:42043:1,2002-10-01T00:00:00Z,28.9818,-94.9186,2.0,213.9503506,20.73490776,-99999.0,'11111222,11111222,99999999' 
TABS,ioos:station:wmo:42043:1,2002-10-01T00:30:00Z,28.9818,-94.9186,2.0,218.6595074,22.85915353,-99999.0,'11111222,11111222,99999999' 
TABS,ioos:station:wmo:42043:1,2002-10-01T01:00:00Z,28.9818,-94.9186,2.0,224.454363,23.03151102,-99999.0,'11111222,11111222,99999999' 
TABS,ioos:station:wmo:42043:1,2002-10-01T01:30:00Z,28.9818,-94.9186,2.0,224.8322081,21.7719108,-99999.0,'11111222,11111222,99999999' 
TABS,ioos:station:wmo:42043:1,2002-10-01T02:00:00Z,28.9818,-94.9186,2.0,225.7453556,19.56023006,-99999.0,'11111222,11111222,99999999' 
TABS,ioos:station:wmo:42043:1,2002-10-01T02:30:00Z,28.9818,-94.9186,2.0,233.2172864,19.64002291,-99999.0,'11111222,11111222,99999999' 
TABS,ioos:station:wmo:42043:1,2002-10-01T03:00:00Z,28.9818,-94.9186,2.0,235.8537121,18.47487483,-99999.0,'11111222,11111222,99999999' 
TABS,ioos:station:wmo:42043:1,2002-10-01T03:30:00Z,28.9818,-94.9186,2.0,231.7997594,18.09487497,-99999.0,'11111222,11111222,99999999' 
TABS,ioos:station:wmo:42043:1,2002-10-01T04:00:00Z,28.9818,-94.9186,2.0,229.4046881,19.7016243,-99999.0,'11111222,11111222,99999999' 
TABS,ioos:station:wmo:42043:1,2002-10-01T04:30:00Z,28.9818,-94.9186,2.0,232.9909306,18.15805331,-99999.0,'11111222,11111222,99999999' 
TABS,ioos:station:wmo:42043:1,2002-10-01T05:00:00Z,28.9818,-94.9186,2.0,228.3371193,13.11786568,-99999.0,'11111222,11111222,99999999' 
TABS,ioos:station:wmo:42043:1,2002-10-01T05:30:00Z,28.9818,-94.9186,2.0,222.7667321,11.79642743,-99999.0,'11111222,11111222,99999999' 
TABS,ioos:station:wmo:42043:1,2002-10-01T06:00:00Z,28.9818,-94.9186,2.0,234.5864858,10.69945793,-99999.0,'11111222,11111222,99999999' 
TABS,ioos:station:wmo:42043:1,2002-10-01T06:30:00Z,28.9818,-94.9186,2.0,237.8336104,9.072557523,-99999.0,'11133222,11111222,99999999' 
TABS,ioos:station:wmo:42043:1,2002-10-01T07:00:00Z,28.9818,-94.9186,2.0,222.562133,9.47673467,-99999.0,'11133222,11111222,99999999' 
TABS,ioos:station:wmo:42043:1,2002-10-01T07:30:00Z,28.9818,-94.9186,2.0,215.9024127,9.123299842,-99999.0,'11133222,11111222,99999999' 
TABS,ioos:station:wmo:42043:1,2002-10-01T08:00:00Z,28.9818,-94.9186,2.0,210.0729395,5.627548312,-99999.0,'11133222,11111222,99999999' 
TABS,ioos:station:wmo:42043:1,2002-10-01T08:30:00Z,28.9818,-94.9186,2.0,235.7598005,5.491784774,-99999.0,'11133222,11111222,99999999' 
TABS,ioos:station:wmo:42043:1,2002-10-01T09:00:00Z,28.9818,-94.9186,2.0,200.8304641,5.371079966,-99999.0,'11133222,11111222,99999999' 
TABS,ioos:station:wmo:42043:1,2002-10-01T09:30:00Z,28.9818,-94.9186,2.0,190.3660879,3.334426487,-99999.0,'11133222,11111222,99999999' 
TABS,ioos:station:wmo:42043:1,2002-10-01T10:00:00Z,28.9818,-94.9186,2.0,231.2404185,5.39893508,-99999.0,'11133222,11111222,99999999' 
TABS,ioos:station:wmo:42043:1,2002-10-01T10:30:00Z,28.9818,-94.9186,2.0,232.0591783,4.602803494,-99999.0,'11133222,11111222,99999999' 
TABS,ioos:station:wmo:42043:1,2002-10-01T11:00:00Z,28.9818,-94.9186,2.0,214.1472188,2.779136557,-99999.0,'11133222,11111222,99999999' 
TABS,ioos:station:wmo:42043:1,2002-10-01T11:30:00Z,28.9818,-94.9186,2.0,200.7139159,2.544484231,-99999.0,'11133222,11111222,99999999' 
TABS,ioos:station:wmo:42043:1,2002-10-01T12:00:00Z,28.9818,-94.9186,2.0,256.675079,0.390512484,-99999.0,'11133222,11111222,99999999' 
TABS,ioos:station:wmo:42043:1,2002-10-01T12:30:00Z,28.9818,-94.9186,2.0,137.3717314,1.196035117,-99999.0,'11133222,11111222,99999999' 
TABS,ioos:station:wmo:42043:1,2002-10-01T13:00:00Z,28.9818,-94.9186,2.0,169.6949672,2.347871376,-99999.0,'11133222,11111222,99999999' 
TABS,ioos:station:wmo:42043:1,2002-10-01T13:30:00Z,28.9818,-94.9186,2.0,183.1900164,3.054734031,-99999.0,'11133222,11111222,99999999' 
TABS,ioos:station:wmo:42043:1,2002-10-01T14:00:00Z,28.9818,-94.9186,2.0,169.8580473,4.71365039,-99999.0,'11133222,11111222,99999999' 
TABS,ioos:station:wmo:42043:1,2002-10-01T14:30:00Z,28.9818,-94.9186,2.0,202.1402896,5.333263541,-99999.0,'11133222,11111222,99999999' 
TABS,ioos:station:wmo:42043:1,2002-10-01T15:00:00Z,28.9818,-94.9186,2.0,209.5893289,9.153797026,-99999.0,'11133222,11111222,99999999' 
TABS,ioos:station:wmo:42043:1,2002-10-01T15:30:00Z,28.9818,-94.9186,2.0,206.125839,9.923960903,-99999.0,'11133222,11111222,99999999' 
TABS,ioos:station:wmo:42043:1,2002-10-01T16:00:00Z,28.9818,-94.9186,2.0,227.632113,7.389993234,-99999.0,'11133222,11111222,99999999' 
TABS,ioos:station:wmo:42043:1,2002-10-01T16:30:00Z,28.9818,-94.9186,2.0,214.1610781,10.11530029,-99999.0,'11111222,11111222,99999999' 
TABS,ioos:station:wmo:42043:1,2002-10-01T17:00:00Z,28.9818,-94.9186,2.0,213.9418473,12.60845748,-99999.0,'11111222,11111222,99999999' 
TABS,ioos:station:wmo:42043:1,2002-10-01T17:30:00Z,28.9818,-94.9186,2.0,215.4336036,15.4028374,-99999.0,'11111222,11111222,99999999' 
TABS,ioos:station:wmo:42043:1,2002-10-01T18:00:00Z,28.9818,-94.9186,2.0,211.7641048,18.90098939,-99999.0,'11111222,11111222,99999999' 
TABS,ioos:station:wmo:42043:1,2002-10-01T18:30:00Z,28.9818,-94.9186,2.0,219.7323785,30.19368146,-99999.0,'11111222,11111222,99999999' 
TABS,ioos:station:wmo:42043:1,2002-10-01T19:00:00Z,28.9818,-94.9186,2.0,230.1445099,36.98218625,-99999.0,'11111222,11111222,99999999' 
TABS,ioos:station:wmo:42043:1,2002-10-01T19:30:00Z,28.9818,-94.9186,2.0,241.1152152,40.22403883,-99999.0,'11111222,11111222,99999999' 
TABS,ioos:station:wmo:42043:1,2002-10-01T20:00:00Z,28.9818,-94.9186,2.0,240.5272233,50.08083066,-99999.0,'11111222,11111222,99999999' 
TABS,ioos:station:wmo:42043:1,2002-10-01T20:30:00Z,28.9818,-94.9186,2.0,239.3884399,46.26776416,-99999.0,'11111222,11111222,99999999' 
TABS,ioos:station:wmo:42043:1,2002-10-01T21:00:00Z,28.9818,-94.9186,2.0,242.7841321,48.45424336,-99999.0,'11111222,11111222,99999999' 
TABS,ioos:station:wmo:42043:1,2002-10-01T21:30:00Z,28.9818,-94.9186,2.0,248.3446511,46.50197845,-99999.0,'11111222,11111222,99999999' 
TABS,ioos:station:wmo:42043:1,2002-10-01T22:00:00Z,28.9818,-94.9186,2.0,242.8344989,42.27294761,-99999.0,'11111222,11111222,99999999' 
TABS,ioos:station:wmo:42043:1,2002-10-01T22:30:00Z,28.9818,-94.9186,2.0,244.7606413,38.64960543,-99999.0,'11111222,11111222,99999999' 
TABS,ioos:station:wmo:42043:1,2002-10-01T23:00:00Z,28.9818,-94.9186,2.0,251.0859172,38.22378448,-99999.0,'11111222,11111222,99999999' 
TABS,ioos:station:wmo:42043:1,2002-10-01T23:30:00Z,28.9818,-94.9186,2.0,243.9479303,38.43507903,-99999.0,'11111222,11111222,99999999' 
TABS,ioos:station:wmo:42043:1,2002-10-02T00:00:00Z,28.9818,-94.9186,2.0,247.0457173,36.28292436,-99999.0,'11111222,11111222,99999999' 
TABS,ioos:station:wmo:42043:1,2002-10-02T00:30:00Z,28.9818,-94.9186,2.0,248.6973573,34.95847394,-99999.0,'11111222,11111222,99999999' 
TABS,ioos:station:wmo:42043:1,2002-10-02T01:00:00Z,28.9818,-94.9186,2.0,251.2892157,32.88806775,-99999.0,'11111222,11111222,99999999' 
TABS,ioos:station:wmo:42043:1,2002-10-02T01:30:00Z,28.9818,-94.9186,2.0,258.3968312,35.30136541,-99999.0,'11111222,11111222,99999999' 
TABS,ioos:station:wmo:42043:1,2002-10-02T02:00:00Z,28.9818,-94.9186,2.0,260.5520981,38.13727835,-99999.0,'11111222,11111222,99999999' 
TABS,ioos:station:wmo:42043:1,2002-10-02T02:30:00Z,28.9818,-94.9186,2.0,266.6450303,36.74295715,-99999.0,'11111222,11111222,99999999' 
TABS,ioos:station:wmo:42043:1,2002-10-02T03:00:00Z,28.9818,-94.9186,2.0,266.5339554,40.03321121,-99999.0,'11111222,11111222,99999999' 
TABS,ioos:station:wmo:42043:1,2002-10-02T03:30:00Z,28.9818,-94.9186,2.0,264.4441342,38.21951857,-99999.0,'11111222,11111222,99999999' 
TABS,ioos:station:wmo:42043:1,2002-10-02T04:00:00Z,28.9818,-94.9186,2.0,264.0654275,36.46540552,-99999.0,'11111222,11111222,99999999' 
TABS,ioos:station:wmo:42043:1,2002-10-02T04:30:00Z,28.9818,-94.9186,2.0,261.4233349,34.8699068,-99999.0,'11111222,11111222,99999999' 
TABS,ioos:station:wmo:42043:1,2002-10-02T05:00:00Z,28.9818,-94.9186,2.0,260.0968635,37.21445418,-99999.0,'11111222,11111222,99999999' 
TABS,ioos:station:wmo:42043:1,2002-10-02T05:30:00Z,28.9818,-94.9186,2.0,259.9289987,37.62976083,-99999.0,'11111222,11111222,99999999' 
TABS,ioos:station:wmo:42043:1,2002-10-02T06:00:00Z,28.9818,-94.9186,2.0,262.620604,35.81662184,-99999.0,'11111222,11111222,99999999' 
TABS,ioos:station:wmo:42043:1,2002-10-02T06:30:00Z,28.9818,-94.9186,2.0,261.8580891,35.51797432,-99999.0,'11111222,11111222,99999999' 
TABS,ioos:station:wmo:42043:1,2002-10-02T07:00:00Z,28.9818,-94.9186,2.0,259.7745042,34.70112534,-99999.0,'11111222,11111222,99999999' 
TABS,ioos:station:wmo:42043:1,2002-10-02T07:30:00Z,28.9818,-94.9186,2.0,257.9036061,32.16411199,-99999.0,'11111222,11111222,99999999' 
TABS,ioos:station:wmo:42043:1,2002-10-02T08:00:00Z,28.9818,-94.9186,2.0,255.843735,31.36235004,-99999.0,'11111222,11111222,99999999' 
TABS,ioos:station:wmo:42043:1,2002-10-02T08:30:00Z,28.9818,-94.9186,2.0,254.5284682,27.21618085,-99999.0,'11111222,11111222,99999999' 
TABS,ioos:station:wmo:42043:1,2002-10-02T09:00:00Z,28.9818,-94.9186,2.0,252.6442896,26.18198235,-99999.0,'11111222,11111222,99999999' 
TABS,ioos:station:wmo:42043:1,2002-10-02T09:30:00Z,28.9818,-94.9186,2.0,256.1786368,24.53022625,-99999.0,'11111222,11111222,99999999' 
TABS,ioos:station:wmo:42043:1,2002-10-02T10:00:00Z,28.9818,-94.9186,2.0,249.5322305,23.45039232,-99999.0,'11111222,11111222,99999999' 
TABS,ioos:station:wmo:42043:1,2002-10-02T10:30:00Z,28.9818,-94.9186,2.0,252.7301517,20.21113554,-99999.0,'11111222,11111222,99999999' 
TABS,ioos:station:wmo:42043:1,2002-10-02T11:00:00Z,28.9818,-94.9186,2.0,250.2290278,22.11349136,-99999.0,'11111222,11111222,99999999' 
TABS,ioos:station:wmo:42043:1,2002-10-02T11:30:00Z,28.9818,-94.9186,2.0,251.4818097,19.67887446,-99999.0,'11111222,11111222,99999999' 
TABS,ioos:station:wmo:42043:1,2002-10-02T12:00:00Z,28.9818,-94.9186,2.0,253.5554317,18.93449762,-99999.0,'11111222,11111222,99999999' 
TABS,ioos:station:wmo:42043:1,2002-10-02T12:30:00Z,28.9818,-94.9186,2.0,257.3965532,15.90318522,-99999.0,'11111222,11111222,99999999' 
TABS,ioos:station:wmo:42043:1,2002-10-02T13:00:00Z,28.9818,-94.9186,2.0,258.6966425,16.12270759,-99999.0,'11111222,11111222,99999999' 
TABS,ioos:station:wmo:42043:1,2002-10-02T13:30:00Z,28.9818,-94.9186,2.0,253.9352427,15.21408887,-99999.0,'11111222,11111222,99999999' 
TABS,ioos:station:wmo:42043:1,2002-10-02T14:00:00Z,28.9818,-94.9186,2.0,248.1213859,13.84731382,-99999.0,'11111222,11111222,99999999' 
TABS,ioos:station:wmo:42043:1,2002-10-02T14:30:00Z,28.9818,-94.9186,2.0,236.655296,13.7900979,-99999.0,'11111222,11111222,99999999' 
TABS,ioos:station:wmo:42043:1,2002-10-02T15:00:00Z,28.9818,-94.9186,2.0,230.5161584,14.12269096,-99999.0,'11111222,11111222,99999999' 
TABS,ioos:station:wmo:42043:1,2002-10-02T15:30:00Z,28.9818,-94.9186,2.0,229.2444393,12.51476328,-99999.0,'11111222,11111222,99999999' 
TABS,ioos:station:wmo:42043:1,2002-10-02T16:00:00Z,28.9818,-94.9186,2.0,217.2994399,15.46243513,-99999.0,'11111222,11111222,99999999' 
TABS,ioos:station:wmo:42043:1,2002-10-02T16:30:00Z,28.9818,-94.9186,2.0,213.5268624,15.60655311,-99999.0,'11111222,11111222,99999999' 
TABS,ioos:station:wmo:42043:1,2002-10-02T17:00:00Z,28.9818,-94.9186,2.0,208.4545585,19.39278474,-99999.0,'11111222,11111222,99999999' 
TABS,ioos:station:wmo:42043:1,2002-10-02T17:30:00Z,28.9818,-94.9186,2.0,201.8105825,22.55455608,-99999.0,'11111222,11111222,99999999' 
TABS,ioos:station:wmo:42043:1,2002-10-02T18:00:00Z,28.9818,-94.9186,2.0,198.0714424,27.43331004,-99999.0,'11111222,11111222,99999999' 
TABS,ioos:station:wmo:42043:1,2002-10-02T18:30:00Z,28.9818,-94.9186,2.0,191.2471819,30.5568732,-99999.0,'11111222,11111222,99999999' 
TABS,ioos:station:wmo:42043:1,2002-10-02T19:00:00Z,28.9818,-94.9186,2.0,189.1637508,33.46715554,-99999.0,'11111222,11111222,99999999' 
TABS,ioos:station:wmo:42043:1,2002-10-02T19:30:00Z,28.9818,-94.9186,2.0,186.1670339,36.95386989,-99999.0,'11111222,11111222,99999999' 
TABS,ioos:station:wmo:42043:1,2002-10-02T20:00:00Z,28.9818,-94.9186,2.0,184.9289014,39.10461865,-99999.0,'11111222,11111222,99999999' 
TABS,ioos:station:wmo:42043:1,2002-10-02T20:30:00Z,28.9818,-94.9186,2.0,178.4460639,41.67532243,-99999.0,'11111222,11111222,99999999' 
TABS,ioos:station:wmo:42043:1,2002-10-02T21:00:00Z,28.9818,-94.9186,2.0,179.5477368,44.36138073,-99999.0,'11111222,11111222,99999999' 
TABS,ioos:station:wmo:42043:1,2002-10-02T21:30:00Z,28.9818,-94.9186,2.0,183.3662423,45.4684616,-99999.0,'11111222,11111222,99999999' 
TABS,ioos:station:wmo:42043:1,2002-10-02T22:00:00Z,28.9818,-94.9186,2.0,191.6682621,44.49962247,-99999.0,'11111222,11111222,99999999' 
TABS,ioos:station:wmo:42043:1,2002-10-02T22:30:00Z,28.9818,-94.9186,2.0,190.3507614,46.63902658,-99999.0,'11111222,11111222,99999999' 
TABS,ioos:station:wmo:42043:1,2002-10-02T23:00:00Z,28.9818,-94.9186,2.0,181.7708101,39.79901129,-99999.0,'11111222,11111222,99999999' 
TABS,ioos:station:wmo:42043:1,2002-10-02T23:30:00Z,28.9818,-94.9186,2.0,180.9007296,38.79479604,-99999.0,'11111222,11111222,99999999' 
TABS,ioos:station:wmo:42043:1,2002-10-03T00:00:00Z,28.9818,-94.9186,2.0,178.6033519,37.7512119,-99999.0,'11111222,11111222,99999999' 
TABS,ioos:station:wmo:42043:1,2002-10-03T00:30:00Z,28.9818,-94.9186,2.0,178.1507057,37.49952666,-99999.0,'11111222,11111222,99999999' 
TABS,ioos:station:wmo:42043:1,2002-10-03T01:00:00Z,28.9818,-94.9186,2.0,180.3487499,26.27048724,-99999.0,'11111222,11111222,99999999' 
TABS,ioos:station:wmo:42043:1,2002-10-03T01:30:00Z,28.9818,-94.9186,2.0,205.1791579,21.08334177,-99999.0,'11111222,11111222,99999999' 
TABS,ioos:station:wmo:42043:1,2002-10-03T02:00:00Z,28.9818,-94.9186,2.0,212.8365927,22.35134895,-99999.0,'11111222,11111222,99999999' 
TABS,ioos:station:wmo:42043:1,2002-10-03T02:30:00Z,28.9818,-94.9186,2.0,238.0498738,27.30661825,-99999.0,'11111222,11111222,99999999' 
TABS,ioos:station:wmo:42043:1,2002-10-03T03:00:00Z,28.9818,-94.9186,2.0,251.3109406,29.99133542,-99999.0,'11111222,11111222,99999999' 
TABS,ioos:station:wmo:42043:1,2002-10-03T03:30:00Z,28.9818,-94.9186,2.0,256.0667348,36.29794071,-99999.0,'11111222,11111222,99999999' 
TABS,ioos:station:wmo:42043:1,2002-10-03T04:00:00Z,28.9818,-94.9186,2.0,258.2573626,37.68871051,-99999.0,'11111222,11111222,99999999' 
TABS,ioos:station:wmo:42043:1,2002-10-03T04:30:00Z,28.9818,-94.9186,2.0,250.2233936,39.04269074,-99999.0,'11111222,11111222,99999999' 
TABS,ioos:station:wmo:42043:1,2002-10-03T05:00:00Z,28.9818,-94.9186,2.0,240.0980687,41.72420041,-99999.0,'11111222,11111222,99999999' 
TABS,ioos:station:wmo:42043:1,2002-10-03T05:30:00Z,28.9818,-94.9186,2.0,241.6639176,39.94630396,-99999.0,'11111222,11111222,99999999' 
TABS,ioos:station:wmo:42043:1,2002-10-03T06:00:00Z,28.9818,-94.9186,2.0,259.7595349,37.18225652,-99999.0,'11111222,11111222,99999999' 
TABS,ioos:station:wmo:42043:1,2002-10-03T06:30:00Z,28.9818,-94.9186,2.0,244.8284524,37.68889757,-99999.0,'11111222,11111222,99999999' 
TABS,ioos:station:wmo:42043:1,2002-10-03T07:00:00Z,28.9818,-94.9186,2.0,245.7172965,40.19615031,-99999.0,'11111222,11111222,99999999' 
TABS,ioos:station:wmo:42043:1,2002-10-03T07:30:00Z,28.9818,-94.9186,2.0,246.0071341,42.64454479,-99999.0,'11111222,11111222,99999999' 
TABS,ioos:station:wmo:42043:1,2002-10-03T08:00:00Z,28.9818,-94.9186,2.0,242.4183951,58.24978798,-99999.0,'11111222,11111222,99999999' 
TABS,ioos:station:wmo:42043:1,2002-10-03T08:30:00Z,28.9818,-94.9186,2.0,241.0366524,72.89703972,-99999.0,'11111222,11111222,99999999' 
TABS,ioos:station:wmo:42043:1,2002-10-03T09:00:00Z,28.9818,-94.9186,2.0,238.2203121,84.09770627,-99999.0,'11111222,11111222,99999999' 
TABS,ioos:station:wmo:42043:1,2002-10-03T09:30:00Z,28.9818,-94.9186,2.0,233.9978386,80.79127242,-99999.0,'11111222,11111222,99999999' 
TABS,ioos:station:wmo:42043:1,2002-10-03T10:00:00Z,28.9818,-94.9186,2.0,232.0126636,79.4010913,-99999.0,'11111222,11111222,99999999' 
TABS,ioos:station:wmo:42043:1,2002-10-03T10:30:00Z,28.9818,-94.9186,2.0,230.4267816,81.34250058,-99999.0,'11111222,11111222,99999999' 
TABS,ioos:station:wmo:42043:1,2002-10-03T11:00:00Z,28.9818,-94.9186,2.0,229.1085167,79.54182422,-99999.0,'11111222,11111222,99999999' 
TABS,ioos:station:wmo:42043:1,2002-10-03T11:30:00Z,28.9818,-94.9186,2.0,222.9432998,82.96169779,-99999.0,'11111222,11111222,99999999' 
TABS,ioos:station:wmo:42043:1,2002-10-03T12:00:00Z,28.9818,-94.9186,2.0,224.382581,83.37979671,-99999.0,'11111222,11111222,99999999' 
TABS,ioos:station:wmo:42043:1,2002-10-03T12:30:00Z,28.9818,-94.9186,2.0,220.2708318,83.19855047,-99999.0,'11111222,11111222,99999999' 
TABS,ioos:station:wmo:42043:1,2002-10-03T13:00:00Z,28.9818,-94.9186,2.0,219.3617187,79.38908552,-99999.0,'11111222,11111222,99999999' 
TABS,ioos:station:wmo:42043:1,2002-10-03T13:30:00Z,28.9818,-94.9186,2.0,216.3441007,71.08899001,-99999.0,'11111222,11111222,99999999' 
TABS,ioos:station:wmo:42043:1,2002-10-03T14:00:00Z,28.9818,-94.9186,2.0,218.4451436,63.86614518,-99999.0,'11111222,11111222,99999999' 
TABS,ioos:station:wmo:42043:1,2002-10-03T14:30:00Z,28.9818,-94.9186,2.0,219.2363739,53.51565192,-99999.0,'11111222,11111222,99999999' 
TABS,ioos:station:wmo:42043:1,2002-10-03T15:00:00Z,28.9818,-94.9186,2.0,218.94484,45.78602953,-99999.0,'11111222,11111222,99999999' 
TABS,ioos:station:wmo:42043:1,2002-10-03T15:30:00Z,28.9818,-94.9186,2.0,222.9416826,47.06002656,-99999.0,'11111222,11111222,99999999' 
TABS,ioos:station:wmo:42043:1,2002-10-03T16:00:00Z,28.9818,-94.9186,2.0,219.61644,42.7351015,-99999.0,'11111222,11111222,99999999' 
TABS,ioos:station:wmo:42043:1,2002-10-03T16:30:00Z,28.9818,-94.9186,2.0,219.9988219,43.9655547,-99999.0,'11111222,11111222,99999999' 
TABS,ioos:station:wmo:42043:1,2002-10-03T17:00:00Z,28.9818,-94.9186,2.0,221.6850091,32.16352748,-99999.0,'11111222,11111222,99999999' 
TABS,ioos:station:wmo:42043:1,2002-10-03T17:30:00Z,28.9818,-94.9186,2.0,223.4036242,27.41809621,-99999.0,'11111222,11111222,99999999' 
TABS,ioos:station:wmo:42043:1,2002-10-03T18:00:00Z,28.9818,-94.9186,2.0,231.6946863,19.16601158,-99999.0,'11111222,11111222,99999999' 
TABS,ioos:station:wmo:42043:1,2002-10-03T18:30:00Z,28.9818,-94.9186,2.0,219.6187959,18.09682845,-99999.0,'11111222,11111222,99999999' 
TABS,ioos:station:wmo:42043:1,2002-10-03T19:00:00Z,28.9818,-94.9186,2.0,220.5980308,21.00646091,-99999.0,'11111222,11111222,99999999' 
TABS,ioos:station:wmo:42043:1,2002-10-03T19:30:00Z,28.9818,-94.9186,2.0,242.9028892,19.75874743,-99999.0,'11111222,11111222,99999999' 
TABS,ioos:station:wmo:42043:1,2002-10-03T20:00:00Z,28.9818,-94.9186,2.0,235.6604632,20.56405602,-99999.0,'11111222,11111222,99999999' 
TABS,ioos:station:wmo:42043:1,2002-10-03T20:30:00Z,28.9818,-94.9186,2.0,229.5059183,21.95990893,-99999.0,'11111222,11111222,99999999' 
TABS,ioos:station:wmo:42043:1,2002-10-03T21:00:00Z,28.9818,-94.9186,2.0,242.1602859,26.74551551,-99999.0,'11111222,11111222,99999999' 
TABS,ioos:station:wmo:42043:1,2002-10-03T21:30:00Z,28.9818,-94.9186,2.0,253.1283601,25.84226964,-99999.0,'11111222,11111222,99999999' 
TABS,ioos:station:wmo:42043:1,2002-10-03T22:00:00Z,28.9818,-94.9186,2.0,240.3731874,21.60441622,-99999.0,'11111222,11111222,99999999' 
TABS,ioos:station:wmo:42043:1,2002-10-03T22:30:00Z,28.9818,-94.9186,2.0,238.7262755,12.69451062,-99999.0,'11111222,11111222,99999999' 
TABS,ioos:station:wmo:42043:1,2002-10-03T23:00:00Z,28.9818,-94.9186,2.0,247.5143301,6.223094086,-99999.0,'11133222,11111222,99999999' 
TABS,ioos:station:wmo:42043:1,2002-10-03T23:30:00Z,28.9818,-94.9186,2.0,147.2646398,3.495096565,-99999.0,'11133222,11111222,99999999' 
TABS,ioos:station:wmo:42043:1,2002-10-04T00:00:00Z,28.9818,-94.9186,2.0,97.63655436,7.224070875,-99999.0,'11133222,11111222,99999999' 
TABS,ioos:station:wmo:42043:1,2002-10-04T00:30:00Z,28.9818,-94.9186,2.0,87.70540898,11.48921233,-99999.0,'11111222,11111222,99999999' 
TABS,ioos:station:wmo:42043:1,2002-10-04T01:00:00Z,28.9818,-94.9186,2.0,74.32472243,20.689478,-99999.0,'11111222,11111222,99999999' 
TABS,ioos:station:wmo:42043:1,2002-10-04T01:30:00Z,28.9818,-94.9186,2.0,80.42252468,22.89918121,-99999.0,'11111222,11111222,99999999' 
TABS,ioos:station:wmo:42043:1,2002-10-04T02:00:00Z,28.9818,-94.9186,2.0,80.8948915,27.42557201,-99999.0,'11111222,11111222,99999999' 
TABS,ioos:station:wmo:42043:1,2002-10-04T02:30:00Z,28.9818,-94.9186,2.0,82.03681224,35.44175645,-99999.0,'11111222,11111222,99999999' 
TABS,ioos:station:wmo:42043:1,2002-10-04T03:00:00Z,28.9818,-94.9186,2.0,86.86005596,41.4422164,-99999.0,'11111222,11111222,99999999' 
TABS,ioos:station:wmo:42043:1,2002-10-04T03:30:00Z,28.9818,-94.9186,2.0,88.61769941,46.01339044,-99999.0,'11111222,11111222,99999999' 
TABS,ioos:station:wmo:42043:1,2002-10-04T04:00:00Z,28.9818,-94.9186,2.0,91.21036951,51.60151354,-99999.0,'11111222,11111222,99999999' 
TABS,ioos:station:wmo:42043:1,2002-10-04T04:30:00Z,28.9818,-94.9186,2.0,93.93166229,55.42043035,-99999.0,'11111222,11111222,99999999' 
TABS,ioos:station:wmo:42043:1,2002-10-04T05:00:00Z,28.9818,-94.9186,2.0,95.74292694,58.16192311,-99999.0,'11111222,11111222,99999999' 
TABS,ioos:station:wmo:42043:1,2002-10-04T05:30:00Z,28.9818,-94.9186,2.0,96.65111721,54.7384006,-99999.0,'11111222,11111222,99999999' 
TABS,ioos:station:wmo:42043:1,2002-10-04T06:00:00Z,28.9818,-94.9186,2.0,100.5754399,54.15995938,-99999.0,'11111222,11111222,99999999' 
TABS,ioos:station:wmo:42043:1,2002-10-04T06:30:00Z,28.9818,-94.9186,2.0,103.0874204,55.51188882,-99999.0,'11111222,11111222,99999999' 
TABS,ioos:station:wmo:42043:1,2002-10-04T07:00:00Z,28.9818,-94.9186,2.0,104.2548953,54.01307712,-99999.0,'11111222,11111222,99999999' 
TABS,ioos:station:wmo:42043:1,2002-10-04T07:30:00Z,28.9818,-94.9186,2.0,106.0222526,57.31649414,-99999.0,'11111222,11111222,99999999' 
TABS,ioos:station:wmo:42043:1,2002-10-04T08:00:00Z,28.9818,-94.9186,2.0,105.8708625,58.10494127,-99999.0,'11111222,11111222,99999999' 
TABS,ioos:station:wmo:42043:1,2002-10-04T08:30:00Z,28.9818,-94.9186,2.0,108.3254105,61.22496958,-99999.0,'11111222,11111222,99999999' 
TABS,ioos:station:wmo:42043:1,2002-10-04T09:00:00Z,28.9818,-94.9186,2.0,110.7539298,60.64523229,-99999.0,'11111222,11111222,99999999' 
TABS,ioos:station:wmo:42043:1,2002-10-04T09:30:00Z,28.9818,-94.9186,2.0,108.9365766,64.64892033,-99999.0,'11111222,11111222,99999999' 
TABS,ioos:station:wmo:42043:1,2002-10-04T10:00:00Z,28.9818,-94.9186,2.0,110.444355,63.67050495,-99999.0,'11111222,11111222,99999999' 
TABS,ioos:station:wmo:42043:1,2002-10-04T10:30:00Z,28.9818,-94.9186,2.0,112.206678,63.2624138,-99999.0,'11111222,11111222,99999999' 
TABS,ioos:station:wmo:42043:1,2002-10-04T11:00:00Z,28.9818,-94.9186,2.0,111.8741527,64.31006142,-99999.0,'11111222,11111222,99999999' 
TABS,ioos:station:wmo:42043:1,2002-10-04T11:30:00Z,28.9818,-94.9186,2.0,111.0499631,69.10132054,-99999.0,'11111222,11111222,99999999' 
TABS,ioos:station:wmo:42043:1,2002-10-04T12:00:00Z,28.9818,-94.9186,2.0,107.8616281,69.21623581,-99999.0,'11111222,11111222,99999999' 
TABS,ioos:station:wmo:42043:1,2002-10-04T12:30:00Z,28.9818,-94.9186,2.0,106.6338181,66.30460995,-99999.0,'11111222,11111222,99999999' 
TABS,ioos:station:wmo:42043:1,2002-10-04T13:00:00Z,28.9818,-94.9186,2.0,106.9232435,67.60772737,-99999.0,'11111222,11111222,99999999' 
TABS,ioos:station:wmo:42043:1,2002-10-04T13:30:00Z,28.9818,-94.9186,2.0,108.2009821,68.16030076,-99999.0,'11111222,11111222,99999999' 
TABS,ioos:station:wmo:42043:1,2002-10-04T14:00:00Z,28.9818,-94.9186,2.0,106.1474373,64.65052513,-99999.0,'11111222,11111222,99999999' 
TABS,ioos:station:wmo:42043:1,2002-10-04T14:30:00Z,28.9818,-94.9186,2.0,105.8391999,60.05002082,-99999.0,'11111222,11111222,99999999' 
TABS,ioos:station:wmo:42043:1,2002-10-04T15:00:00Z,28.9818,-94.9186,2.0,106.3813112,59.21373236,-99999.0,'11111222,11111222,99999999' 
TABS,ioos:station:wmo:42043:1,2002-10-04T15:30:00Z,28.9818,-94.9186,2.0,103.0010814,52.8959507,-99999.0,'11111222,11111222,99999999' 
TABS,ioos:station:wmo:42043:1,2002-10-04T16:00:00Z,28.9818,-94.9186,2.0,103.1888873,51.49836988,-99999.0,'11111222,11111222,99999999' 